Henderson, NV

8:55 AM PST on February 22, 2017 (GMT -0800)
Henderson

Weather History for KHND - February, 2013

Change the Weather History Date:

Thursday, February 21, 2013

  Actual Average (KLAS) Record (KLAS)
Temperature  
Mean Temperature 43 °F -  
Max Temperature 52 °F 63 °F 80 °F (1977)
Min Temperature 34 °F 40 °F 21 °F (1955)
Degree Days  
Heating Degree Days 22    
Moisture  
Dew Point 18 °F    
Average Humidity 41    
Maximum Humidity 73    
Minimum Humidity 20    
Precipitation  
Precipitation 0.00 in - - ()
Sea Level Pressure  
Sea Level Pressure 30.00 in    
Wind  
Wind Speed 2 mph (SSE)    
Max Wind Speed 9 mph    
Max Gust Speed -    
Visibility 10 miles    
Events      
Averages and records for this station are not official NWS values.
T = Trace of Precipitation, MM = Missing Value Source: NWS Daily Summary

Daily Weather History Graph

Daily Weather History Graph

Search for Another Location

Airport or City:

Trip Planner

Search our weather history database for the weather conditions in past years. The results will help you decide how hot, cold, wet, or windy it might be!

Date:

Astronomy

Feb. 21, 2013 Rise Set
Actual Time 6:20 AM PST 5:28 PM PST
Civil Twilight 5:54 AM PST 5:54 PM PST
Nautical Twilight 5:24 AM PST 6:24 PM PST
Astronomical Twilight 4:54 AM PST 6:53 PM PST
Moon 1:51 PM PST (2/21) 3:22 AM PST (2/21)
Length of Visible Light 11h 59m
Length of Day
11h 07m
Waxing Gibbous, 84% of the Moon is Illuminated
Feb 21
Waxing Gibbous
Feb 25
Full
Mar 4
Last Quarter
Mar 11
New
Mar 19
First Quarter

Hourly Weather History & Observations

Time (PST) Temp. Windchill Dew Point Humidity Pressure Visibility Wind Dir Wind Speed Gust Speed Precip Events Conditions
12:56 AM 38.8 °F - 30.0 °F 71% 29.88 in 10.0 mi Calm Calm - N/A   Clear
1:56 AM 36.0 °F 29.6 °F 28.0 °F 73% 29.90 in 10.0 mi South 8.1 mph - N/A   Clear
2:56 AM 36.9 °F - 26.1 °F 65% 29.89 in 10.0 mi Calm Calm - N/A   Scattered Clouds
3:56 AM 36.0 °F 29.6 °F 22.1 °F 57% 29.91 in 10.0 mi SSE 8.1 mph - N/A   Clear
4:56 AM 36.9 °F 32.2 °F 20.1 °F 51% 29.92 in 10.0 mi East 5.8 mph - N/A   Clear
5:56 AM 34.0 °F - 18.1 °F 52% 29.95 in 10.0 mi Calm Calm - N/A   Clear
6:56 AM 34.9 °F - 18.1 °F 51% 29.97 in 10.0 mi Calm Calm - N/A   Clear
7:56 AM 38.8 °F - 19.0 °F 45% 30.00 in 10.0 mi Calm Calm - N/A   Clear
8:56 AM 41.0 °F - 19.0 °F 41% 30.03 in 10.0 mi Calm Calm - N/A   Clear
10:56 AM 45.9 °F - 18.1 °F 33% 30.03 in 10.0 mi Calm Calm - N/A   Clear
11:56 AM 46.9 °F - 17.1 °F 30% 30.02 in 10.0 mi Calm Calm - N/A   Clear
12:56 PM 50.9 °F - 16.2 °F 25% 29.99 in 10.0 mi NE 4.6 mph - N/A   Clear
1:56 PM 50.0 °F - 14.0 °F 24% 29.99 in 10.0 mi Calm Calm - N/A   Clear
2:56 PM 52.0 °F - 12.0 °F 20% 29.99 in 10.0 mi Calm Calm - N/A   Partly Cloudy
3:56 PM 50.9 °F - 12.0 °F 21% 29.99 in 10.0 mi Calm Calm - N/A   Clear
4:56 PM 52.0 °F - 12.0 °F 20% 29.99 in 10.0 mi Calm Calm - N/A   Clear
5:56 PM 47.8 °F - 13.1 °F 25% 30.01 in 10.0 mi Calm Calm - N/A   Clear
6:56 PM 43.9 °F - 16.2 °F 33% 30.04 in 10.0 mi Calm Calm - N/A   Clear
7:56 PM 41.9 °F 36.3 °F 15.1 °F 34% 30.06 in 10.0 mi South 9.2 mph - N/A   Clear
8:56 PM 38.8 °F 33.2 °F 15.1 °F 38% 30.07 in 10.0 mi South 8.1 mph - N/A   Clear
9:56 PM 36.9 °F 33.1 °F 15.1 °F 41% 30.08 in 10.0 mi South 4.6 mph - N/A   Clear
10:56 PM 34.9 °F 29.0 °F 15.1 °F 44% 30.09 in 10.0 mi SSE 6.9 mph - N/A   Clear
11:56 PM 34.0 °F 28.0 °F 14.0 °F 44% 30.10 in 10.0 mi SSE 6.9 mph - N/A   Clear